Location: Azul
(36.7830°S, 59.8500°W)
Time: 02:31:24
(UTC-03:00)

CAS-4A - Pass Details

Date: 01 November 2021
Orbit: 529 x 539 km, 43.0° (Epoch: 04 December)

Event Time Altitude Azimuth Distance (km) Brightness Sun altitude
Exits shadow 03:38:54 39° 207° (SSW) 814 ? -24.1°
Maximum altitude 03:39:53 49° 164° (SSE) 701 ? -23.9°
Drops below altitude 10° 03:43:52 10° 88° (E) 1,787 ? -23.3°
Sets 03:46:09 0° 82° (E) 2,674 ? -23.0°
